Cairo, IL

8:12 AM CST on December 08, 2019 (GMT -0600)
Cairo Regional

Weather History for KCIR - October, 2019

Change the Weather History Date:

Saturday, October 19, 2019

  Actual Average Record
Temperature  
Mean Temperature 55 °F -  
Max Temperature 71 °F 65 °F 89 °F (2005)
Min Temperature 39 °F 46 °F 33 °F (2015)
Degree Days  
Heating Degree Days 10    
Growing Degree Days 5 (Base 50)    
Moisture  
Dew Point 46 °F    
Average Humidity 77    
Maximum Humidity 99    
Minimum Humidity 40    
Precipitation  
Precipitation 0.00 in - - ()
Sea Level Pressure  
Sea Level Pressure 29.83 in    
Wind  
Wind Speed 1 mph ()    
Max Wind Speed 10 mph    
Max Gust Speed -    
Visibility 10.0 miles    
Events      
Averages and records for this station are not official NWS values.
T = Trace of Precipitation, MM = Missing Value Source: Averaged Metar Reports

Daily Weather History Graph

Daily Weather History Graph

Search for Another Location

Airport or City:

Astronomy

Oct. 19, 2019 Rise Set
Actual Time 7:08 AM CDT 6:15 PM CDT
Civil Twilight 6:41 AM CDT 6:41 PM CDT
Nautical Twilight 6:11 AM CDT 7:11 PM CDT
Astronomical Twilight 5:41 AM CDT 7:41 PM CDT
Moon 10:29 PM CDT (10/19) 12:34 PM CDT (10/19)
Length of Visible Light 11h 59m
Length of Day
11h 06m
Waning Gibbous, 69% of the Moon is Illuminated
Oct 19
Waning Gibbous
Oct 21
Last Quarter
Oct 27
New
Nov 4
First Quarter
Nov 12
Full

Hourly Weather History & Observations

Time (CDT) Temp. Dew Point Humidity Pressure Visibility Wind Dir Wind Speed Gust Speed Precip Events Conditions
12:15 AM 44.2 °F 42.8 °F 95% 29.87 in 10.0 mi Calm Calm - N/A   Clear
12:35 AM 43.9 °F 42.4 °F 95% 29.87 in 10.0 mi Calm Calm - N/A   Clear
12:55 AM 45.0 °F 43.3 °F 94% 29.87 in 10.0 mi Calm Calm - N/A   Clear
1:15 AM 45.1 °F 43.2 °F 93% 29.87 in 10.0 mi Calm Calm - N/A   Clear
1:30 AM 44.6 °F 43.2 °F 95% 29.87 in 10.0 mi Calm Calm - N/A   Clear
2:15 AM 43.2 °F 42.3 °F 97% 29.88 in 10.0 mi Calm Calm - N/A   Clear
2:35 AM 43.2 °F 42.1 °F 96% 29.87 in 10.0 mi Calm Calm - N/A   Clear
2:55 AM 43.2 °F 42.3 °F 97% 29.88 in 10.0 mi Calm Calm - N/A   Clear
3:15 AM 43.7 °F 43.2 °F 98% 29.87 in 10.0 mi Calm Calm - N/A   Clear
3:55 AM 41.5 °F 41.0 °F 98% 29.87 in 10.0 mi Calm Calm - N/A   Clear
4:15 AM 41.0 °F 40.6 °F 99% 29.86 in 10.0 mi Calm Calm - N/A   Clear
4:35 AM 41.2 °F 41.0 °F 99% 29.87 in 10.0 mi Calm Calm - N/A   Clear
4:55 AM 41.9 °F 41.5 °F 99% 29.86 in 10.0 mi Calm Calm - N/A   Clear
5:15 AM 40.6 °F 40.1 °F 98% 29.87 in 10.0 mi Calm Calm - N/A   Clear
5:35 AM 41.5 °F 41.2 °F 99% 29.87 in 10.0 mi Calm Calm - N/A   Clear
5:55 AM 40.3 °F 39.6 °F 97% 29.86 in 10.0 mi Calm Calm - N/A   Clear
6:15 AM 40.8 °F 40.3 °F 98% 29.86 in 10.0 mi Calm Calm - N/A   Clear
6:35 AM 39.6 °F 39.0 °F 98% 29.86 in 10.0 mi Calm Calm - N/A   Clear
6:55 AM 40.3 °F 40.1 °F 99% 29.87 in 10.0 mi Calm Calm - N/A   Clear
7:15 AM 41.4 °F 41.2 °F 99% 29.87 in 10.0 mi Calm Calm - N/A   Clear
7:35 AM 41.5 °F 41.2 °F 99% 29.88 in 10.0 mi Calm Calm - N/A   Clear
7:55 AM 43.3 °F 43.2 °F 99% 29.88 in 10.0 mi Calm Calm - N/A   Clear
8:15 AM 46.2 °F 45.5 °F 97% 29.88 in 10.0 mi Calm Calm - N/A   Clear
8:35 AM 48.9 °F 46.2 °F 90% 29.88 in 10.0 mi Calm Calm - N/A   Clear
8:55 AM 51.8 °F 47.3 °F 85% 29.89 in 10.0 mi Calm Calm - N/A   Clear
9:15 AM 54.5 °F 46.9 °F 76% 29.89 in 10.0 mi Calm Calm - N/A   Clear
9:35 AM 55.8 °F 47.1 °F 73% 29.89 in 10.0 mi SSE 5.8 mph - N/A   Clear
9:55 AM 57.2 °F 47.7 °F 70% 29.89 in 10.0 mi Calm Calm - N/A   Clear
10:15 AM 59.2 °F 48.6 °F 68% 29.88 in 10.0 mi South 5.8 mph - N/A   Clear
10:35 AM 61.3 °F 48.9 °F 64% 29.87 in 10.0 mi SSE 4.6 mph - N/A   Clear
10:55 AM 62.8 °F 48.9 °F 61% 29.87 in 10.0 mi SSE 5.8 mph - N/A   Clear
11:15 AM 63.5 °F 48.4 °F 58% 29.86 in 10.0 mi SSE 6.9 mph - N/A   Clear
11:35 AM 64.2 °F 48.2 °F 56% 29.86 in 10.0 mi SE 8.1 mph - N/A   Clear
11:55 AM 65.7 °F 48.0 °F 53% 29.85 in 10.0 mi SE 6.9 mph - N/A   Clear
12:15 PM 65.3 °F 48.0 °F 54% 29.85 in 10.0 mi Calm Calm - N/A   Clear
12:35 PM 66.6 °F 48.4 °F 52% 29.84 in 10.0 mi Calm Calm - N/A   Clear
12:55 PM 66.7 °F 48.2 °F 51% 29.82 in 10.0 mi SSE 5.8 mph - N/A   Clear
1:15 PM 67.5 °F 46.9 °F 48% 29.81 in 10.0 mi SSE 5.8 mph - N/A   Clear
1:55 PM 69.4 °F 45.9 °F 43% 29.79 in 10.0 mi South 6.9 mph - N/A   Clear
2:15 PM 69.8 °F 46.4 °F 43% 29.78 in 10.0 mi SSE 8.1 mph - N/A   Clear
2:35 PM 70.3 °F 46.0 °F 42% 29.77 in 10.0 mi SSE 8.1 mph - N/A   Clear
2:55 PM 71.2 °F 46.0 °F 40% 29.77 in 10.0 mi SSE 10.4 mph - N/A   Clear
3:15 PM 70.9 °F 45.3 °F 40% 29.77 in 10.0 mi SE 5.8 mph - N/A   Clear
3:35 PM 70.5 °F 45.5 °F 41% 29.77 in 10.0 mi SSE 5.8 mph - N/A   Clear
3:55 PM 70.9 °F 46.2 °F 41% 29.76 in 10.0 mi SSE 6.9 mph - N/A   Clear
4:15 PM 71.1 °F 45.7 °F 40% 29.75 in 10.0 mi South 9.2 mph - N/A   Clear
4:35 PM 70.7 °F 46.4 °F 42% 29.76 in 10.0 mi Calm Calm - N/A   Clear
4:55 PM 68.7 °F 46.6 °F 45% 29.76 in 10.0 mi Calm Calm - N/A   Clear
5:15 PM 67.1 °F 46.6 °F 48% 29.76 in 10.0 mi Calm Calm - N/A   Clear
5:35 PM 66.2 °F 46.4 °F 49% 29.76 in 10.0 mi Calm Calm - N/A   Clear
5:55 PM 64.0 °F 47.8 °F 56% 29.76 in 10.0 mi Calm Calm - N/A   Clear
6:15 PM 61.2 °F 49.1 °F 65% 29.76 in 10.0 mi Calm Calm - N/A   Clear
6:35 PM 60.4 °F 50.7 °F 70% 29.77 in 10.0 mi Calm Calm - N/A   Clear
6:55 PM 59.9 °F 50.7 °F 72% 29.77 in 10.0 mi Calm Calm - N/A   Clear
7:15 PM 59.5 °F 50.2 °F 71% 29.77 in 10.0 mi Calm Calm - N/A   Clear
7:35 PM 58.1 °F 51.8 °F 80% 29.78 in 10.0 mi Calm Calm - N/A   Scattered Clouds
7:55 PM 57.7 °F 50.9 °F 78% 29.78 in 10.0 mi Calm Calm - N/A   Scattered Clouds
8:15 PM 56.1 °F 51.8 °F 85% 29.77 in 10.0 mi Calm Calm - N/A   Scattered Clouds
8:35 PM 55.4 °F 52.0 °F 88% 29.79 in 10.0 mi Calm Calm - N/A   Scattered Clouds
8:55 PM 54.9 °F 51.8 °F 89% 29.79 in 10.0 mi Calm Calm - N/A   Scattered Clouds
9:15 PM 55.4 °F 51.6 °F 87% 29.80 in 10.0 mi Calm Calm - N/A   Clear
9:35 PM 54.7 °F 51.3 °F 88% 29.80 in 10.0 mi Calm Calm - N/A   Clear
9:55 PM 52.7 °F 51.8 °F 97% 29.80 in 10.0 mi Calm Calm - N/A   Clear
10:15 PM 52.5 °F 51.3 °F 95% 29.80 in 10.0 mi Calm Calm - N/A   Scattered Clouds
10:35 PM 52.0 °F 50.9 °F 96% 29.81 in 10.0 mi Calm Calm - N/A   Scattered Clouds
10:55 PM 51.1 °F 49.3 °F 94% 29.81 in 10.0 mi Calm Calm - N/A   Scattered Clouds
11:15 PM 52.0 °F 50.5 °F 95% 29.81 in 10.0 mi Calm Calm - N/A   Scattered Clouds
11:35 PM 50.5 °F 48.9 °F 94% 29.81 in 10.0 mi Calm Calm - N/A   Scattered Clouds
11:55 PM 51.4 °F 50.5 °F 97% 29.81 in 10.0 mi Calm Calm - N/A   Scattered Clouds